User: anonymous   Login
Location: Unspecified
(0.0000°N, 0.0000°E)
Time: 21:45:26
(UTC+02:00)
Language:

Cosmos 1538 Rocket - Orbit

View from above orbital plane
View from above orbital plane
View from above satellite
View from above satellite

Ground track
Ground track

The orbit data is extracted from the following two-line orbital elements,

1 14760U 84019B   15209.21826117  .00000047  00000-0  25321-4 0  9993
2 14760 074.0452 307.4500 0028516 334.9928 046.4054 14.35707723644568
Epoch (UTC): 28 July 2015 05:14:17
Eccentricity: 0.0028516
inclination: 74.0452°
perigee height: 752 km
apogee height: 793 km
right ascension of ascending node: 307.4500°
argument of perigee: 334.9928°
revolutions per day: 14.35707723
mean anomaly at epoch: 46.4054°
orbit number at epoch: 64456

The dashed part of the orbit path shows where the satellite is in the earth's shadow,  

DLR